www.pogodaiklimat.ru

Погода и климат >> Архив погоды >> Индия >> Machilipatnam


ПОГОДА в Machilipatnam

  • Прогноз погоды в Machilipatnam
  • Монитор погоды в Machilipatnam
  • Климат города

АРХИВ ПОГОДЫ в Machilipatnam

Время (UTC), дата Ветер
(напр.,м/с)
 
Видим.   Явления Облачность Т
(С)
Тd
(С)
f
(%)
Тe
(С)
Тes
(С)
Комфортность P
(гПа)
Po
(гПа)
Тmin
(С)
Tmax
(С)
R
(мм)
R24
(мм)
S
(см)
12 8.08 З 1 10 км 9/5 600 м
[Sc Ac trans]
+31.0 +24.4 68 +43 +44 опасность
перегрева
1000.1 999.8 +32.5
15 8.08 штиль 0 4000 м {морось} 8/4 600 м
[Sc Ac trans]
+29.0 +24.7 78 +41 +41 опасность
перегрева
1002.2 1001.9 0.0
18 8.08 Ю 1 4000 м {морось} 8/5 600 м
[Sc Ac trans]
+28.2 +25.1 83 +41 +41 опасность
перегрева
1002.7 1002.4 0.0
21 8.08 Ю 2 4000 м 4/3 600 м
[Sc Ac trans]
+28.2 +25.9 87 +42 +42 опасность
перегрева
1002.1 1001.8 0.0
00 9.08 штиль 0 4000 м 9/5 600 м
[Sc Ac As]
+27.8 +24.6 83 +39 +39 очень
душно
1003.0 1002.7 0.0
03 9.08 З 1 10 км 9/5 360 м
[Sc Ac trans]
+28.4 +25.0 82 +41 +44 опасность
перегрева
1005.2 1004.9 +26.3 +32.6 0.0
06 9.08 З 2 10 км 9/4 600 м
[Sc Ac trans Ci sp]
+31.8 +24.1 64 +44 +51 опасность
перегрева
1005.0 1004.7
09 9.08 СЗ 4 10 км 8/4 600 м
[Cu Sc Ac trans Ci sp]
+32.8 +23.8 59 +44 +48 опасность
перегрева
1002.7 1002.4
12 9.08 З 2 10 км 5/1 600 м
[Sc Ac trans Ci sp]
+34.0 +25.0 59 +47 +48 опасность
перегрева
1002.2 1001.9 +35.1
15 9.08 штиль 0 4000 м 5/3 600 м
[Sc Ac trans]
+30.0 +25.8 78 +45 +45 опасность
перегрева
1004.1 1003.8
18 9.08 штиль 0 4000 м 5/3 600 м
[Sc Ac trans]
+30.0 +25.8 78 +45 +45 опасность
перегрева
1004.1 1003.8
21 9.08 СЗ 2 4000 м 10/5 600 м
[Sc Ac As]
+26.4 +24.4 89 +37 +37 очень
душно
1004.2 1003.9 0.6
00 10.08 З 2 4000 м 10/5 600 м
[Sc Ac As]
+25.8 +24.1 90 +36 +36 очень
душно
1004.9 1004.6 0.6
03 10.08 З 2 4000 м слабый дождь {морось} 10/6 300 м
[Frnb As op]
+24.6 +23.7 95 +33 +34 очень
душно
1006.6 1006.3 +24.1 +35.1 3
06 10.08 З 2 4000 м слабая морось {дождь} 10/6 300 м
[Frnb As op]
+24.2 +23.9 98 +33 +35 очень
душно
1006.4 1006.1 21
09 10.08 ЮЗ 2 4000 м {морось} 10/5 600 м
[Cu Sc Ac As]
+25.6 +24.1 91 +35 +37 очень
душно
1004.1 1003.8 21
12 10.08 ЮЗ 1 4000 м {морось} 10/5 600 м
[Cu Sc Ac As]
+26.6 +24.6 89 +38 +38 очень
душно
1002.4 1002.1 +27.2 21
15 10.08 штиль 0 4000 м 10/5 600 м
[Cu Sc Ac As]
+26.2 +24.8 92 +37 +37 очень
душно
1004.2 1003.9 21
18 10.08 З 5 4000 м в посл. час морось 10/5 750 м
[Cu Sc Ac As]
+25.6 +23.6 89 +35 +35 очень
душно
1004.2 1003.9 22
21 10.08 З 4 4000 м 10/6 600 м
[Sc Ac As]
+25.8 +23.5 87 +35 +35 очень
душно
1003.2 1002.9 22
00 11.08 З 3 4000 м слабая морось 10/6 600 м
[Sc Ac As]
+25.0 +23.8 93 +34 +34 очень
душно
1002.6 1002.3 22
03 11.08 З 4 4000 м {морось} 10/6 300 м
[Frnb Ac As]
+25.6 +24.1 91 +35 +36 очень
душно
1002.9 1002.6 +24.5 +27.2 23
06 11.08 СЗ 3 10 км 10/6 600 м
[Cu Sc Ac trans]
+29.0 +23.5 72 +39 +42 очень
душно
1002.7 1002.4
09 11.08 СЗ 6 10 км 10/5 600 м
[Sc diur, vesp Ac As]
+30.0 +23.0 66 +40 +41 очень
душно
1001.4 1001.1
12 11.08 З 2 4000 м слабая морось {дождь} 10/10 600 м
[]
+27.0 +24.1 84 +37 +37 очень
душно
1001.4 1001.1 +30.7 0.6
15 11.08 СЗ 2 4000 м 9/5
[Sc Ac trans]
+26.0 +24.0 89 +36 +36 очень
душно
1002.4 1002.1 3
18 11.08 З 2 4000 м 9/6 600 м
[Sc Ac trans]
+26.0 +24.0 89 +36 +36 очень
душно
1003.1 1002.8 3
21 11.08 З 2 4000 м в посл. час дождь 8/5 600 м
[Sc Ac trans]
+25.6 +24.1 91 +35 +35 очень
душно
1000.9 1000.6 4
00 12.08 З 4 4000 м {дождь} 9/5 600 м
[Sc Ac trans]
+26.0 +23.1 84 +35 +35 очень
душно
1000.9 1000.6 4
03 12.08 З 2 4000 м слабый дождь {морось} 10/5 600 м
[Sc As trans]
+25.6 +24.1 91 +35 +37 очень
душно
1002.2 1001.9 +25.4 +30.6 4
06 12.08 З 3 4000 м в посл. час дождь {морось} 10/5 600 м
[Sc Ac As]
+26.0 +24.9 94 +37 +40 очень
душно
1002.3 1002.0 5
09 12.08 ЮЗ 1 4000 м в посл. час дождь {морось} 10/5 600 м
[Sc Ac As]
+27.6 +25.0 86 +40 +42 очень
душно
1000.0 999.7 5
12 12.08 штиль 0 4000 м гроза, ливневой дождь 10/5 540 м
[Cb cap As op]
+25.6 +25.0 96 +36 +37 очень
душно
1000.2 999.9 +28.2 21
15 12.08 штиль 0 4000 м слабый дождь {гроза} 10/6 300 м
[Frnb As op]
+25.2 +24.8 98 +36 +36 очень
душно
1002.0 1001.7 27
18 12.08 СЗ 1 4000 м {гроза, дождь} 10/5 600 м
[Sc Ac As]
+25.2 +24.3 95 +35 +35 очень
душно
1002.3 1002.0 28
21 12.08 З 2 4000 м слабая морось 10/6 300 м
[Frnb As op]
+25.0 +23.8 93 +34 +34 очень
душно
1000.6 1000.3 29
00 13.08 З 2 4000 м слабая морось 10/6 300 м
[Frnb As op]
+24.6 +23.7 95 +33 +33 очень
душно
1000.8 1000.5 31
03 13.08 штиль 0 4000 м слабая морось 10/6 540 м
[Frnb As op]
+25.2 +24.3 95 +35 +36 очень
душно
1002.7 1002.4 +24.2 +28.2 32
06 13.08 штиль 0 4000 м слабая морось 10/6 540 м
[Frnb As op]
+26.0 +25.1 95 +37 +40 очень
душно
1002.6 1002.3 2
09 13.08 штиль 0 4000 м слабая морось 10/6 300 м
[Frnb As op]
+26.4 +25.0 92 +38 +39 очень
душно
1001.8 1001.5 3
12 13.08 ЮЗ 1 4000 м слабая морось 10/6 300 м
[Frnb As op]
+26.0 +24.9 94 +37 +37 очень
душно
1001.5 1001.2 +27.5 4
15 13.08 штиль 0 4000 м слабая морось 10/5 600 м
[Cu Sc As op]
+25.2 +24.3 95 +35 +35 очень
душно
1002.7 1002.4 5
18 13.08 З 3 4000 м слабая морось {дождь} 10/5 600 м
[Cu Sc As op]
+25.0 +24.1 95 +34 +34 очень
душно
1002.8 1002.5 8
21 13.08 З 3 4000 м слабая морось 10/6 300 м
[Frnb As op]
+24.6 +23.7 95 +33 +33 очень
душно
1001.3 1001.0 9
00 14.08 З 1 4000 м слабый дождь 10/6 300 м
[Frnb As op]
+24.4 +23.8 96 +33 +33 очень
душно
1000.6 1000.3 13
03 14.08 З 1 4000 м слабый дождь 10/5 600 м
[Sc As op]
+24.8 +23.9 95 +34 +35 очень
душно
1001.8 1001.5 +24.3 +27.5 16
06 14.08 З 2 4000 м слабая морось {дождь} 10/5 600 м
[Sc As op]
+27.0 +24.7 87 +38 +41 очень
душно
1001.7 1001.4 0.2
09 14.08 З 2 4000 м {морось} 10/5 600 м
[Sc Ac As]
+27.8 +24.6 83 +39 +42 очень
душно
999.6 999.3 0.4
12 14.08 ЮЗ 1 4000 м {морось} 9/5 600 м
[Sc Ac trans]
+28.4 +25.9 86 +42 +43 опасность
перегрева
998.3 998.0 +29.0 0.4
15 14.08 СЗ 1 4000 м 9/4 600 м
[Sc Ac trans Cs]
+27.2 +25.2 89 +39 +39 очень
душно
999.7 999.4 0.4
18 14.08 СЗ 1 4000 м 10/5 600 м
[Sc Ac As]
+27.0 +25.3 90 +39 +39 очень
душно
1000.2 999.9 0.4
21 14.08 СЗ 1 4000 м 10/5 600 м
[Sc Ac As]
+26.8 +25.1 90 +39 +39 очень
душно
997.6 997.3 0.4
00 15.08 З 1 4000 м в посл. час морось 10/5 600 м
[Sc As trans]
+26.4 +25.0 92 +38 +38 очень
душно
998.6 998.3 0.4
03 15.08 З 1 4000 м слабая морось 10/6 300 м
[Frnb Ac As]
+26.6 +25.2 92 +38 +40 очень
душно
1000.1 999.8 +26.1 +29.0 0.5
06 15.08 З 3 4000 м слабый дождь {морось} 10/5 600 м
[Sc As op]
+26.6 +25.2 92 +38 +40 очень
душно
1000.3 1000.0 0.5

 

Местоположение метеостанции Machilipatnam (Andhra Pradesh, Индия): широта 16.20 долгота 81.15 высота над уровнем моря 3 м.

В архиве по умолчанию представлена погода в Machilipatnam за последнюю неделю. Архивные данные за месяц целиком и за предыдущие месяцы, начиная с января 2011 года, Вы можете получить, выбрав интересующий диапазон дат из раскрывающегося списка и нажав кнопку "Ввод!".


*Определитесь, кто Вы:
робот инопланетянин человек

Внимание! Время в таблицах - всемирное. Для получения местного времени необходимо прибавить поправку, которая в Machilipatnam равна 5.5 ч.

Смотрите также архив погоды в соседних городах и на ближайших метеорологических станциях:

Погода в Gannavaram (Andhra Pradesh, Индия) (52 км)
Погода в Narsapur (Andhra Pradesh, Индия) (64 км)
Погода в Bapatla (Andhra Pradesh, Индия) (80 км)
Погода в Nandigama (Andhra Pradesh, Индия) (113 км)
Погода в Ongole (Andhra Pradesh, Индия) (140 км)
Погода в Kakinada (Andhra Pradesh, Индия) (142 км)
Погода в Khammam (Telangana, Индия) (158 км)
Погода в Bhadrachalam (Telangana, Индия) (166 км)
Погода в Rentachintala (Andhra Pradesh, Индия) (175 км)
Погода в Kavali (Andhra Pradesh, Индия) (191 км)

Пояснения к столбцам:

Ветер - указаны скорость ветра в м/с - средняя за 10 мин, порывы в срок и между сроками (в фигурных скобках) и направление, откуда дует ветер: С - северный, СВ - северо-восточный, В - восточный, ЮВ - юго-восточный, Ю - южный, ЮЗ - юго-западный, З - западный, СЗ - северо-западный.
Видимость - горизонтальная дальность видимости в метрах или километрах. При видимости от 1 до 10 км при отсутствии осадков обычно наблюдается дымка, при ухудшении видимости до 1 км и менее - туман. В сухую погоду видимость может ухудшаться дымом, пылью или мглою.
Явления - указаны атмосферные явления, наблюдавшиеся в срок или в последний час перед сроком; фигурными скобками обозначены явления, наблюдавшиеся между сроками (за 1-3 часа до срока); квадратными скобками обозначены град или гололедные отложения с указанием их диаметра в мм.
Облачность - указаны через наклонную черту общая и нижняя облачность в баллах и высота нижней границы облаков в метрах; квадратными скобками обозначены формы облаков: Ci - перистые, Cs - перисто-слоистые, Cc - перисто-кучевые, Ac - высококучевые, As - высокослоистые, Sc - слоисто-кучевые, Ns - слоисто-дождевые, Cu - кучевые, Cb - кучево-дождевые. Подробнее классификацию облаков см. в Атласе облаков (PDF).
T - Температура воздуха - температура, измеренная на высоте 2 м над землей.
Td - Температура точки росы - температура, при понижении до которой содержащийся в воздухе водяной пар достигнет насыщения.
f - Относительная влажность воздуха - влажноcть воздуха, измеренная на высоте 2 м над землей.
Te - Эффективная температура - температура, которую ощущает одетый по сезону человек в тени. Характеристика душности погоды. При расчете учитывается влияние влажности воздуха и скорости ветра на теплоощущения человека.
Tes - Эффективная температура на солнце - температура, которую ощущает человек, с поправкой на солнечный нагрев. Характеристика знойности погоды. Зависит от высоты солнца над горизонтом, облачности и скорости ветра. Ночью, в пасмурную погоду, а также при ветре 12 м/с и более поправка равна нулю.
P - Атмосферное давление - приведенное к уровню моря атмосферное давление.
Po - Атмосферное давление - измеренное на уровне метеостанции атмосферное давление.
Tmin - Минимальная температура - минимум температуры воздуха на высоте 2 м над землей.
Tmax - Максимальная температура - максимум температуры воздуха на высоте 2 м над землей.
R - Количество осадков - Количество выпавших осадков за период времени, мм. При наведении курсора мыши на число - период времени, за который выпало указанное количество осадков.
R24 - Количество осадков - Количество выпавших осадков за 24 часа, мм.
S - Снежный покров - Высота снежного покрова, см. При наведении курсора мыши на число - состояние снежного покрова и степень покрытия местности в баллах.